Weather History for KHIF - July, 2013

Change the Weather History Date:

Thursday, July 18, 2013

  Actual Average Record
Temperature  
Mean Temperature 80 °F -  
Max Temperature 95 °F 87 °F 100 °F (2003)
Min Temperature 66 °F 63 °F 57 °F (2005)
Cooling Degree Days 15    
Growing Degree Days 30 (Base 50)    
Moisture  
Dew Point 52 °F    
Average Humidity 40    
Maximum Humidity 64    
Minimum Humidity 20    
Precipitation  
Precipitation 0.00 in - - ()
Sea Level Pressure  
Sea Level Pressure 29.95 in    
Wind  
Wind Speed 13 mph (ENE)    
Max Wind Speed 23 mph    
Max Gust Speed 29 mph    
Visibility 10 miles    
Events      
Averages and records for this station are not official NWS values.
T = Trace of Precipitation, MM = Missing Value Source: NWS Daily Summary

Daily Weather History Graph

Daily Weather History Graph

Search for Another Location

Airport or City:

Trip Planner

Search our weather history database for the weather conditions in past years. The results will help you decide how hot, cold, wet, or windy it might be!

Date:

Astronomy

Jul. 18, 2013 Rise Set
Actual Time 6:11 AM MDT 8:56 PM MDT
Civil Twilight 5:38 AM MDT 9:29 PM MDT
Nautical Twilight 4:58 AM MDT 10:09 PM MDT
Astronomical Twilight 4:11 AM MDT 10:55 PM MDT
Moon 4:57 PM MDT (7/18) 2:04 AM MDT (7/18)
Length of Visible Light 15h 50m
Length of Day
14h 45m
Waxing Gibbous, 78% of the Moon is Illuminated
Jul 18
Waxing Gibbous
Jul 22
Full
Jul 29
Last Quarter
Aug 6
New
Aug 14
First Quarter

Hourly Weather History & Observations

Time (MDT) Temp. Heat Index Dew Point Humidity Pressure Visibility Wind Dir Wind Speed Gust Speed Precip Events Conditions
12:58 AM 73.8 °F - 53.6 °F 49% 29.96 in 10.0 mi ESE 12.7 mph - N/A   Clear
1:58 AM 72.7 °F - 54.0 °F 52% 29.96 in 10.0 mi ESE 12.7 mph - N/A   Clear
2:58 AM 70.3 °F - 54.1 °F 56% 29.96 in 10.0 mi ESE 16.1 mph 21.9 mph N/A   Clear
3:58 AM 69.6 °F - 54.0 °F 57% 29.96 in 10.0 mi ESE 15.0 mph - N/A   Clear
4:58 AM 68.5 °F - 54.0 °F 60% 29.96 in 10.0 mi ESE 23.0 mph 27.6 mph N/A   Clear
5:58 AM 67.8 °F - 54.1 °F 62% 29.97 in 10.0 mi ESE 20.7 mph 25.3 mph N/A   Clear
6:58 AM 66.7 °F - 54.1 °F 64% 30.01 in 10.0 mi ESE 21.9 mph 27.6 mph N/A   Clear
7:58 AM 70.0 °F - 54.3 °F 57% 30.02 in 10.0 mi ESE 16.1 mph 28.8 mph N/A   Clear
8:58 AM 72.0 °F - 55.4 °F 56% 30.02 in 10.0 mi East 18.4 mph 25.3 mph N/A   Clear
9:58 AM 75.9 °F - 56.5 °F 51% 30.01 in 10.0 mi ESE 16.1 mph 21.9 mph N/A   Partly Cloudy
10:58 AM 81.0 °F 81.0 °F 57.2 °F 44% 30.01 in 10.0 mi East 8.1 mph - N/A   Clear
11:58 AM 84.4 °F 83.2 °F 55.6 °F 37% 30.01 in 10.0 mi North 1.2 mph - N/A   Clear
12:58 PM 87.6 °F 85.7 °F 54.1 °F 32% 29.99 in 10.0 mi Variable 5.8 mph - N/A   Partly Cloudy
1:58 PM 90.0 °F - 52.7 °F 28% 29.96 in 10.0 mi NNW 9.2 mph - N/A   Clear
2:58 PM 91.0 °F 89.2 °F 55.9 °F 30% 29.94 in 10.0 mi NNW 8.1 mph - N/A   Partly Cloudy
3:58 PM 93.0 °F - 50.9 °F 24% 29.91 in 10.0 mi Variable 5.8 mph - N/A   Clear
4:58 PM 94.5 °F - 46.9 °F 20% 29.91 in 10.0 mi NW 9.2 mph - N/A   Clear
5:58 PM 94.6 °F - 47.3 °F 20% 29.88 in 10.0 mi NNW 16.1 mph - N/A   Clear
6:58 PM 93.7 °F - 47.7 °F 21% 29.88 in 10.0 mi NW 10.4 mph - N/A   Clear
7:58 PM 92.3 °F - 45.9 °F 20% 29.88 in 10.0 mi NW 9.2 mph - N/A   Clear
8:58 PM 88.5 °F - 46.6 °F 23% 29.88 in 10.0 mi NW 10.4 mph - N/A   Clear
9:58 PM 82.9 °F - 48.4 °F 30% 29.91 in 10.0 mi North 1.2 mph - N/A   Clear
10:58 PM 80.6 °F - 46.0 °F 30% 29.91 in 10.0 mi ESE 8.1 mph - N/A   Clear
11:58 PM 80.8 °F - 45.1 °F 28% 29.91 in 10.0 mi East 8.1 mph - N/A   Clear